Tracking 26933 objects as of 5-Feb-2023
HD Live streaming from Space Station
objects crossing your sky now

SPACEBEE-112

Track SPACEBEE-112 now!
10-day predictions


NORAD ID: 52025
Int'l Code: 2022-026T
Perigee: 486.7 km
Apogee: 519.1 km
Inclination: 97.5 °
Period: 94.5 minutes
Semi major axis: 6873 km
RCS: Unknown
Launch date: March 15, 2022
Source: United States (US)
Launch site: Kodiak Island, Alaska (KODAK)
Your satellite tracking list
Your tracking list is empty




NASA's NSSDC Master Catalog

Two Line Element Set (TLE):
1 52025U 22026T   23036.56754901  .00022960  00000-0  96025-3 0  9991
2 52025  97.5081  39.8783 0023534 174.5140 185.6359 15.23339271 49447
Source of the keplerian elements: AFSPC